Location: Poughquag
(41.6090°N, 73.6820°W)
Time: 12:23:42
(UTC-04:00)

DIWATA 2B (PO-101) - Pass Details

Date: 02 June 2024
Orbit: 574 x 588 km, 98.1° (Epoch: 14 June)

Event Time Altitude Azimuth Distance (km) Brightness Sun altitude
Rises 04:31:26 0° 171° (S) 2,780 ? -8.5°
Reaches altitude 10° 04:33:35 10° 174° (S) 1,884 ? -8.2°
Maximum altitude 04:37:39 70° 257° (WSW) 616 ? -7.7°
Drops below altitude 10° 04:41:44 10° 342° (NNW) 1,893 ? -7.1°
Sets 04:43:54 0° 345° (NNW) 2,795 ? -6.7°
